This is the latest recevied weather packets stored in our database for station/object OE-11204. If no packets are shown the sender has not sent any weather packets the latest 10 day(s).
| Time | Temp. | Humidity | Pressure | Rain* | Wind** | Luminosity | Snow |
|---|---|---|---|---|---|---|---|
| 1787827287 | 26.11° C | 54% | 1015.4 hPa | 0 mm | - | 705 W/m² | - |
| 1787826915 | 25.56° C | 58% | 1015.5 hPa | 0 mm | - | 699 W/m² | - |
| 1787826315 | 25.56° C | 57% | 1015.6 hPa | 0 mm | - | 687 W/m² | - |
| 1787825488 | 25° C | 56% | 1015.8 hPa | 0 mm | - | 699 W/m² | - |
| 1787825115 | 25° C | 59% | 1015.8 hPa | 0 mm | - | 644 W/m² | - |
| 1787824515 | 25° C | 60% | 1015.9 hPa | 0 mm | - | 681 W/m² | - |
| 1787823688 | 25° C | 59% | 1016.1 hPa | 0 mm | - | 674 W/m² | - |
| 1787823315 | 23.89° C | 58% | 1016.4 hPa | 0 mm | - | 582 W/m² | - |
| 1787822714 | 23.89° C | 59% | 1016.2 hPa | 0 mm | - | 619 W/m² | - |
| 1787821888 | 23.33° C | 61% | 1016.6 hPa | 0 mm | - | 390 W/m² | - |
| 1787821514 | 23.33° C | 63% | 1016.7 hPa | 0 mm | - | 421 W/m² | - |
| 1787820915 | 22.78° C | 66% | 1016.9 hPa | 0 mm | - | 359 W/m² | - |
| 1787820088 | 22.22° C | 66% | 1017.1 hPa | 0 mm | - | 303 W/m² | - |
| 1787819715 | 21.67° C | 66% | 1017.2 hPa | 0 mm | - | 303 W/m² | - |
| 1787819115 | 21.67° C | 66% | 1017.2 hPa | 0 mm | - | 347 W/m² | - |
| 1787818288 | 22.22° C | 66% | 1017.2 hPa | 0 mm | - | 365 W/m² | - |
| 1787817914 | 21.67° C | 67% | 1017.4 hPa | 0 mm | - | 452 W/m² | - |
| 1787817314 | 21.67° C | 68% | 1017.3 hPa | 0 mm | - | 297 W/m² | - |
| 1787816488 | 21.11° C | 67% | 1017.5 hPa | 0 mm | - | 347 W/m² | - |
| 1787816114 | 21.11° C | 69% | 1017.6 hPa | 0 mm | - | 446 W/m² | - |
| 1787815512 | 20.56° C | 69% | 1017.6 hPa | 0 mm | - | 359 W/m² | - |
| 1787814688 | 20° C | 72% | 1017.8 hPa | 0 mm | - | 353 W/m² | - |
| 1787813715 | 20.56° C | 74% | 1018.1 hPa | 0 mm | - | 278 W/m² | - |
| 1787812888 | 19.44° C | 76% | 1018.2 hPa | 0 mm | - | 254 W/m² | - |
| 1787812515 | 19.44° C | 76% | 1018.3 hPa | 0 mm | - | 254 W/m² | - |
* Rain latest hour (hover to see other rain measurements)
** Current wind speed in m/s (hover to see current wind gust speed)